www.pogodaiklimat.ru

Погода и климат >> Архив погоды >> Россия >> Ямало-Ненецкий АО >> Ныда


ПОГОДА в Ныде

  • Прогноз погоды в Ныде
  • Монитор погоды в Ныде
  • Климат города

АРХИВ ПОГОДЫ в Ныде

Время (UTC), дата Ветер
(напр.,м/с)
 
Видим.   Явления Облачность Т
(С)
Тd
(С)
f
(%)
Тe
(С)
Тes
(С)
Комфортность P
(гПа)
Po
(гПа)
Тmin
(С)
Tmax
(С)
R
(мм)
R24
(мм)
S
(см)
03 13.07 В 3 20 км 8/8 300 м
[Sc]
+13.0 +6.0 62 +12 +13 1020.2 1019.3 +10.1
06 13.07 С 5 50 км 8/8 600 м
[Cu Sc]
+15.1 +6.0 54 +14 +15 1020.6 1019.7
09 13.07 С 5 50 км 5/5 600 м
[Cu med, cong]
+15.8 +6.1 52 +15 +17 1021.0 1020.1
12 13.07 С 4 50 км 3/0
[Ci fib]
+16.1 +5.8 50 +15 +18 1021.2 1020.3
15 13.07 СВ 4 50 км 3/0
[Ci fib]
+15.1 +6.7 57 +14 +15 1020.8 1019.9 +16.1
18 13.07 СВ 2 10 км 3/3 600 м
[Sc Ci fib]
+11.3 +7.4 77 +10 +10 1020.9 1020.0
21 13.07 Ю 1 10 км туман поземный 3/3 600 м
[Sc Ci fib]
+7.7 +6.7 93 +7 +7 1021.4 1020.5
00 14.07 Ю 2 10 км 5/3 600 м
[Sc Ci fib]
+11.6 +6.8 72 +11 +11 1021.6 1020.7
03 14.07 СЗ 2 20 км 4/3 600 м
[Cu Sc Ci fib]
+15.6 +8.8 64 +16 +19 1021.3 1020.4 +7.3
06 14.07 З 3 50 км 3/3 600 м
[Cu Sc Ci fib]
+16.6 +9.3 62 +16 +22 1021.7 1020.8
09 14.07 С 2 50 км 4/0
[Ci sp]
+18.2 +9.6 57 +19 +28 1021.4 1020.5
12 14.07 С 2 50 км 5/0
[Ci sp]
+19.7 +4.4 36 +21 +25 комфорт 1020.8 1019.9
15 14.07 СВ 2 20 км 8/0
[Ac trans Ci fib]
+18.9 +6.5 44 +20 +20 1019.9 1019.0 +20.0
18 14.07 ЮВ 1 10 км 8/0
[Ac trans Ci sp]
+12.9 +10.8 87 +13 +13 1019.6 1018.7
21 14.07 ЮВ 2 10 км 9/3 600 м
[Sc Ac trans Ci sp]
+10.8 +6.8 76 +10 +10 1019.6 1018.7
00 15.07 ЮВ 3 20 км 9/3 300 м
[Sc Ac trans Ci sp]
+13.8 +8.0 68 +13 +13 1020.2 1019.3
03 15.07 Ю 4 50 км 8/0
[Ac trans Ci sp]
+21.7 +8.6 43 +23 +26 комфорт 1019.9 1019.0 +10.1
06 15.07 З 4 20 км 8/0
[Ac trans Ci sp]
+23.5 +7.4 36 +24 +29 комфорт 1019.6 1018.8
09 15.07 ЮЗ 4 20 км 8/3 300 м
[Sc Ac trans Ci fib]
+25.2 +5.9 29 +25 +28 комфорт 1018.9 1018.1
12 15.07 ЮЗ 4 20 км 8/5 300 м
[Sc Ac trans Ci fib]
+26.1 +5.8 27 +25 +26 комфорт 1018.6 1017.8
15 15.07 З 1 20 км 5/3 600 м
[Sc Ac trans Ci fib]
+23.8 +8.9 39 +25 +25 комфорт 1017.8 1017.0 +26.3
18 15.07 ЮВ 1 10 км 4/3 600 м
[Sc Ci fib]
+16.8 +12.3 75 +18 +18 1017.6 1016.7
21 15.07 ЮВ 1 10 км туман поземный 4/3 600 м
[Sc Ci sp]
+12.6 +11.1 91 +13 +13 1017.3 1016.4
00 16.07 ЮВ 2 10 км 4/0
[Ci sp]
+15.3 +11.6 79 +15 +16 1017.3 1016.4
03 16.07 В 1 20 км 3/0
[Ci sp]
+24.6 +11.2 43 +26 +32 жарко 1016.9 1016.1 +11.9
06 16.07 СЗ 2 50 км 3/0
[Ci sp]
+27.1 +7.9 30 +27 +37 жарко 1015.5 1014.7
09 16.07 СЗ 3 50 км 5/0
[Ci sp]
+26.9 +7.7 30 +27 +34 жарко 1014.7 1013.9
12 16.07 СВ 2 50 км 8/0
[Ci sp]
+26.7 +8.6 32 +27 +30 жарко 1013.3 1012.5
15 16.07 В 3 20 км 8/0
[Ci sp]
+25.2 +13.6 49 +27 +28 жарко 1012.9 1012.1 +28.0
18 16.07 Ю 3 10 км 4/3 600 м
[Sc Ci fib]
+17.5 +11.4 67 +18 +18 1011.8 1011.0
21 16.07 Ю 4 10 км 3/3 600 м
[Sc]
+14.9 +9.8 72 +14 +14 1011.2 1010.3
00 17.07 Ю 4 20 км 5/0
[Ac trans Ci fib]
+17.1 +11.3 69 +17 +17 1010.3 1009.5
03 17.07 Ю 7
{10}
20 км 5/3 600 м
[Cu Sc Ac trans Ci fib]
+24.9 +11.1 42 +26 +27 жарко 1009.2 1008.4 +14.2
06 17.07 З 4
{11}
20 км 9/4 600 м
[Cu Sc Ac trans Ci fib]
+23.5 +14.3 56 +26 +28 жарко 1008.9 1008.1
09 17.07 СЗ 5 20 км {ливн. осадки} 9/5 600 м
[Cb cap Ac trans Ci fib]
+22.3 +17.1 72 +27 +28 душно 1008.7 1007.9
12 17.07 СЗ 8-10
{11}
20 км {ливн. осадки} 8/4 300 м
[Cb cap Ac trans]
+18.2 +10.0 59 +17 +18 1011.0 1010.2 +26.8 2
15 17.07 СЗ 8-10
{11}
20 км {ливн. осадки} 8/4 300 м
[Cb cap Ac trans]
+18.2 +10.0 59 +17 +17 1011.0 1010.2 +26.8 2
18 17.07 СЗ 7-11
{12}
10 км {ливн. осадки} 8/8 300 м
[Sc]
+16.3 +11.2 72 +15 +15 1012.0 1011.2
21 17.07 СЗ 7
{11}
10 км 5/5 300 м
[Sc]
+15.1 +11.4 79 +13 +13 1013.1 1012.2
00 18.07 СЗ 9-12
{12}
10 км 3/3 300 м
[Sc]
+13.6 +9.9 78 +11 +11 1014.3 1013.4
03 18.07 СЗ 7-10
{12}
10 км 9/9 300 м
[Sc]
+12.3 +8.8 79 +9 +10 1016.1 1015.2 +12.2
06 18.07 СЗ 8-10
{12}
10 км 9/9 300 м
[Cb cap]
+13.1 +8.4 73 +10 +11 1017.4 1016.5
09 18.07 СЗ 7-10
{12}
10 км 9/9 300 м
[Sc]
+13.8 +7.7 67 +12 +12 1018.0 1017.1
12 18.07 СЗ 6
{12}
10 км 9/9 300 м
[Sc]
+13.9 +7.3 64 +12 +12 1018.4 1017.5
15 18.07 СЗ 9-12
{12}
10 км 9/9 300 м
[Sc]
+14.6 +7.7 63 +12 +12 1018.1 1017.2 +14.9
18 18.07 СЗ 6
{12}
10 км 6/6 300 м
[Sc]
+13.1 +6.6 65 +11 +11 1018.5 1017.6
21 18.07 СЗ 6 10 км 9/6 300 м
[Sc Ac trans]
+13.0 +7.7 70 +11 +11 1018.9 1018.0
00 19.07 С 5 10 км в посл. час ливневой дождь 9/6 300 м
[Cb cap Ac trans]
+13.4 +5.9 60 +12 +12 1020.6 1019.7
03 19.07 В 3 10 км 9/8 300 м
[Cb cap Ac trans]
+12.2 +6.2 67 +11 +11 1021.9 1021.0 -11.4 0.0
06 19.07 СВ 4 10 км 8/8 300 м
[Sc]
+13.0 +5.5 60 +11 +13 1022.1 1021.2
09 19.07 С 6
{10}
10 км 8/8 300 м
[Sc]
+13.5 +4.6 55 +12 +12 1023.5 1022.6
12 19.07 С 6
{10}
10 км 4/4 600 м
[Sc]
+13.1 +4.6 56 +11 +12 1024.1 1023.2
15 19.07 С 6 10 км 6/6 600 м
[Cu Sc]
+12.2 +4.1 58 +10 +10 1024.6 1023.7 +14.2
18 19.07 СВ 4
{10}
10 км 6/6 300 м
[Sc]
+10.9 +3.3 59 +9 +9 1025.2 1024.3
21 19.07 В 3 10 км 6/3 300 м
[Sc Ac trans]
+6.1 +1.6 73 +3 +3 1026.1 1025.2

 

Местоположение метеостанции Ныда (Ямало-Ненецкий АО, Россия): широта 66.63 долгота 72.93 высота над уровнем моря 7 м.

В архиве по умолчанию представлена погода в Ныде за последнюю неделю. Архивные данные за месяц целиком и за предыдущие месяцы, начиная с января 2011 года, Вы можете получить, выбрав интересующий диапазон дат из раскрывающегося списка и нажав кнопку "Ввод!".


*Определитесь, кто Вы:
робот инопланетянин человек

Внимание! Время в таблицах - всемирное. Для получения местного времени необходимо прибавить поправку, которая в Ныде равна 5 ч.

Смотрите также архив погоды в соседних городах и на ближайших метеорологических станциях:

Погода в Пангодах (Ямало-Ненецкий АО, Россия) (113 км)
Погода в Новом Порте (Ямало-Ненецкий АО, Россия) (117 км)
Погода в Надыме (Ямало-Ненецкий АО, Россия) (130 км)
Погода в Новом Уренгое (Ямало-Ненецкий АО, Россия) (181 км)
Погода в Полуе (Ямало-Ненецкий АО, Россия) (201 км)
Погода в Белоярске (Ямало-Ненецкий АО, Россия) (212 км)
Погода в Лонг-Югане (Ямало-Ненецкий АО, Россия) (226 км)
Погода в Уренгое (Ямало-Ненецкий АО, Россия) (256 км)
Погода в Тазовском (Ямало-Ненецкий АО, Россия) (268 км)
Погода в Салехарде (Ямало-Ненецкий АО, Россия) (277 км)

Пояснения к столбцам:

Ветер - указаны скорость ветра в м/с - средняя за 10 мин, порывы в срок и между сроками (в фигурных скобках) и направление, откуда дует ветер: С - северный, СВ - северо-восточный, В - восточный, ЮВ - юго-восточный, Ю - южный, ЮЗ - юго-западный, З - западный, СЗ - северо-западный.
Видимость - горизонтальная дальность видимости в метрах или километрах. При видимости от 1 до 10 км при отсутствии осадков обычно наблюдается дымка, при ухудшении видимости до 1 км и менее - туман. В сухую погоду видимость может ухудшаться дымом, пылью или мглою.
Явления - указаны атмосферные явления, наблюдавшиеся в срок или в последний час перед сроком; фигурными скобками обозначены явления, наблюдавшиеся между сроками (за 1-3 часа до срока); квадратными скобками обозначены град или гололедные отложения с указанием их диаметра в мм.
Облачность - указаны через наклонную черту общая и нижняя облачность в баллах и высота нижней границы облаков в метрах; квадратными скобками обозначены формы облаков: Ci - перистые, Cs - перисто-слоистые, Cc - перисто-кучевые, Ac - высококучевые, As - высокослоистые, Sc - слоисто-кучевые, Ns - слоисто-дождевые, Cu - кучевые, Cb - кучево-дождевые. Подробнее классификацию облаков см. в Атласе облаков (PDF).
T - Температура воздуха - температура, измеренная на высоте 2 м над землей.
Td - Температура точки росы - температура, при понижении до которой содержащийся в воздухе водяной пар достигнет насыщения.
f - Относительная влажность воздуха - влажноcть воздуха, измеренная на высоте 2 м над землей.
Te - Эффективная температура - температура, которую ощущает одетый по сезону человек в тени. Характеристика душности погоды. При расчете учитывается влияние влажности воздуха и скорости ветра на теплоощущения человека.
Tes - Эффективная температура на солнце - температура, которую ощущает человек, с поправкой на солнечный нагрев. Характеристика знойности погоды. Зависит от высоты солнца над горизонтом, облачности и скорости ветра. Ночью, в пасмурную погоду, а также при ветре 12 м/с и более поправка равна нулю.
P - Атмосферное давление - приведенное к уровню моря атмосферное давление.
Po - Атмосферное давление - измеренное на уровне метеостанции атмосферное давление.
Tmin - Минимальная температура - минимум температуры воздуха на высоте 2 м над землей.
Tmax - Максимальная температура - максимум температуры воздуха на высоте 2 м над землей.
R - Количество осадков - Количество выпавших осадков за период времени, мм. При наведении курсора мыши на число - период времени, за который выпало указанное количество осадков.
R24 - Количество осадков - Количество выпавших осадков за 24 часа, мм.
S - Снежный покров - Высота снежного покрова, см. При наведении курсора мыши на число - состояние снежного покрова и степень покрытия местности в баллах.